Probability
19 32 32 48 58 58 55 55 52 55 48 35 35 32 32 32 32 29 29 26 23 26 26 26 23 19 19 13 10 13 16 19 16 13 13 13 10 10 6 6 6 10 10
23 32 42 55 55 52 52 52 52 55 45 39 39 29 29 29 29 29 26 23 23 23 23 19 19 16 13 16 10 6 6 13 10 10 13 10 6 3 6 10 16 10 10
29 39 42 55 55 55 52 52 52 45 39 35 29 29 29 32 29 29 26 23 23 16 13 10 13 13 13 13 10 10 6 6 6 6 6 0 0 3 6 13 13 16 16
32 39 42 48 48 48 48 45 45 39 42 39 35 35 35 35 32 32 26 19 16 16 16 13 10 10 10 13 13 10 6 6 3 0 0 0 0 0 6 13 13 13 10
32 39 42 45 45 45 42 42 42 39 35 35 35 32 29 29 29 29 16 13 13 16 13 10 6 6 6 6 6 10 6 0 3 0 0 0 3 3 0 3 6 6 3
32 35 39 45 45 45 45 39 39 39 39 35 35 29 26 26 26 26 26 23 16 13 6 6 6 6 6 6 6 6 3 0 0 0 0 0 3 3 0 3 3 3 0
29 32 39 42 45 45 39 39 39 39 35 32 29 26 26 23 26 26 26 26 19 13 10 6 6 6 6 6 6 3 3 0 0 3 6 10 3 6 3 3 6 6 6
29 32 39 39 39 39 35 35 35 35 35 29 32 29 23 23 23 19 23 19 13 10 6 3 3 3 6 6 3 3 0 0 0 6 6 6 3 3 10 6 6 6 3
29 32 39 39 35 32 32 32 32 32 29 29 26 19 19 16 23 19 19 16 13 13 6 6 3 3 6 3 3 0 0 0 3 6 3 6 6 6 3 6 6 3 3
32 32 32 32 32 32 29 26 26 26 26 23 16 13 13 16 19 10 10 10 10 3 3 6 3 0 0 0 0 0 0 0 3 3 6 6 3 3 3 3 6 6 6
26 26 26 26 26 26 26 19 16 13 10 10 10 6 6 10 3 3 3 3 6 0 0 0 0 0 0 0 0 0 0 3 3 3 3 0 3 3 3 3 3 6 6
16 19 26 26 19 19 16 16 13 13 13 16 10 10 6 6 6 0 0 0 3 0 0 0 0 0 0 0 0 0 0 0 0 0 0 0 0 0 3 3 3 3 3
10 16 19 19 16 19 13 13 13 16 16 16 13 6 6 6 3 0 0 0 0 0 0 0 0 0 0 0 0 0 0 0 0 0 0 0 0 0 0 3 3 3 3
13 13 16 16 16 16 13 13 13 13 13 13 10 6 6 3 3 3 0 0 3 0 0 0 0 0 0 0 0 0 0 0 0 0 0 0 0 0 0 0 0 3 3
13 13 13 13 13 10 10 10 10 13 10 10 10 3 3 3 0 0 0 0 3 3 0 0 0 0 0 0 0 0 0 0 0 0 0 0 0 0 0 0 0 0 0
13 13 13 13 13 10 6 6 6 6 10 10 6 6 3 3 0 0 0 0 0 0 0 0 0 0 0 0 0 0 0 0 0 0 0 0 0 0 0 0 0 0 0
13 13 13 13 13 6 6 6 6 6 6 10 6 6 3 3 3 0 0 0 0 0 0 0 0 0 0 0 0 0 0 0 0 0 0 0 0 0 0 0 0 0 0
10 13 10 10 10 10 6 6 6 6 10 10 10 6 3 3 3 0 0 0 0 0 0 0 0 0 0 0 0 0 0 0 0 0 0 0 0 0 0 0 0 0 0
3 6 10 10 10 10 6 6 6 6 6 10 6 6 3 0 0 0 0 0 0 0 0 0 0 0 0 0 0 0 0 0 0 0 0 0 0 0 0 0 0 0 0
3 3 6 6 10 10 6 6 6 6 6 10 6 6 0 0 0 0 0 0 0 0 0 0 0 0 0 0 0 0 0 0 0 0 0 0 0 0 0 0 0 0 0
3 3 3 3 3 6 6 6 6 6 6 6 6 3 0 0 0 0 0 0 0 0 0 0 0 0 0 0 0 0 0 0 0 0 0 0 0 0 0 0 0 0 0
3 3 3 3 3 0 3 3 3 3 6 6 6 3 0 0 0 0 0 0 0 0 0 0 0 0 0 0 0 0 0 0 0 0 0 0 0 0 0 0 0 0 0
3 3 3 3 3 0 3 3 3 3 0 0 3 3 0 0 0 0 0 0 0 0 0 0 0 0 0 0 0 0 0 0 0 0 0 0 0 0 0 0 0 0 0
3 3 3 3 3 3 0 3 3 3 3 0 0 0 0 0 0 0 0 0 0 0 0 0 0 0 0 0 0 0 0 0 0 0 0 0 0 0 0 0 0 0 0
3 3 3 3 3 3 0 0 3 3 3 3 3 0 0 0 0 0 0 0 0 0 0 0 0 0 0 0 0 0 0 0 0 0 0 0 0 0 0 0 0 0 0
3 3 3 3 3 0 0 0 0 3 3 3 3 0 0 0 0 0 0 0 0 0 0 0 0 0 0 0 0 0 0 0 0 0 0 0 0 0 0 0 0 0 0
Height
5870 5871 5872 5873 5874 5874 5875 5875 5876 5876 5877 5877 5877 5877 5877 5877 5877 5877 5877 5877 5876 5876 5876 5875 5875 5874 5874 5874 5873 5873 5872 5871 5870 5869 5869 5868 5867 5866 5865 5864 5863 5862 5861
5868 5869 5870 5871 5872 5872 5873 5874 5874 5875 5875 5875 5875 5875 5876 5876 5876 5876 5875 5875 5875 5874 5874 5874 5873 5873 5872 5872 5871 5871 5870 5869 5868 5867 5866 5865 5865 5864 5863 5862 5861 5860 5859
5865 5866 5867 5868 5869 5870 5871 5871 5872 5872 5873 5873 5873 5874 5874 5874 5874 5874 5873 5873 5873 5872 5872 5872 5871 5871 5870 5870 5869 5868 5868 5867 5866 5865 5864 5863 5862 5861 5860 5859 5858 5857 5856
5862 5863 5864 5865 5866 5867 5868 5869 5869 5870 5871 5871 5871 5871 5871 5871 5871 5871 5871 5871 5871 5870 5870 5870 5869 5868 5868 5867 5867 5866 5865 5864 5863 5862 5861 5860 5859 5858 5857 5855 5854 5853 5852
5859 5860 5861 5862 5863 5864 5865 5866 5867 5867 5868 5868 5868 5869 5869 5869 5869 5869 5868 5868 5868 5868 5867 5867 5866 5866 5865 5864 5864 5863 5862 5861 5860 5859 5858 5856 5855 5854 5853 5852 5851 5849 5848
5855 5856 5858 5859 5860 5861 5862 5863 5864 5864 5865 5865 5865 5866 5866 5866 5866 5866 5866 5865 5865 5865 5864 5864 5863 5863 5862 5861 5861 5860 5859 5858 5857 5855 5854 5853 5852 5850 5849 5848 5847 5845 5844
5851 5852 5854 5855 5856 5857 5858 5859 5860 5861 5861 5862 5862 5862 5863 5863 5863 5862 5862 5862 5862 5862 5861 5861 5860 5859 5859 5858 5857 5856 5855 5854 5853 5852 5850 5849 5848 5846 5845 5844 5842 5841 5839
5847 5848 5850 5851 5852 5854 5855 5856 5856 5857 5858 5858 5859 5859 5859 5859 5859 5859 5859 5859 5858 5858 5858 5857 5856 5856 5855 5854 5853 5852 5851 5850 5849 5848 5846 5845 5844 5842 5841 5839 5838 5836 5835
5842 5844 5845 5847 5848 5849 5850 5852 5852 5853 5854 5854 5855 5855 5855 5856 5856 5855 5855 5855 5855 5854 5854 5853 5853 5852 5851 5850 5849 5848 5847 5846 5845 5843 5842 5841 5839 5838 5836 5834 5833 5831 5830
5837 5839 5840 5842 5843 5845 5846 5847 5848 5849 5850 5850 5851 5851 5852 5852 5852 5852 5851 5851 5851 5850 5850 5849 5848 5848 5847 5846 5845 5844 5843 5842 5840 5839 5837 5836 5834 5833 5831 5829 5828 5826 5824
5831 5833 5835 5837 5839 5840 5841 5843 5844 5845 5845 5846 5847 5847 5847 5848 5848 5847 5847 5847 5847 5846 5845 5845 5844 5843 5842 5841 5840 5839 5838 5837 5835 5834 5832 5831 5829 5827 5826 5824 5822 5820 5818
5826 5828 5830 5832 5833 5835 5836 5838 5839 5840 5841 5842 5842 5843 5843 5843 5843 5843 5843 5843 5842 5842 5841 5840 5839 5838 5837 5836 5835 5834 5833 5831 5830 5828 5827 5825 5823 5821 5820 5818 5816 5814 5812
5819 5822 5824 5826 5828 5829 5831 5832 5834 5835 5836 5837 5838 5838 5838 5839 5839 5839 5838 5838 5838 5837 5836 5835 5834 5833 5832 5831 5830 5829 5827 5826 5824 5823 5821 5819 5817 5815 5813 5811 5809 5807 5805
5812 5815 5818 5820 5822 5824 5825 5827 5828 5830 5831 5832 5833 5833 5834 5834 5834 5834 5833 5833 5832 5832 5831 5830 5829 5828 5827 5826 5825 5823 5822 5820 5818 5817 5815 5813 5811 5809 5806 5804 5802 5800 5798
5806 5809 5811 5813 5816 5818 5819 5821 5823 5824 5825 5826 5827 5828 5828 5829 5829 5829 5828 5828 5827 5827 5826 5825 5824 5823 5821 5820 5819 5817 5816 5814 5812 5810 5808 5806 5804 5802 5800 5797 5795 5793 5790
5798 5802 5804 5807 5809 5811 5813 5815 5817 5818 5819 5821 5822 5822 5823 5823 5823 5823 5823 5823 5822 5821 5820 5819 5818 5817 5816 5814 5813 5811 5809 5807 5806 5804 5801 5799 5797 5795 5792 5790 5787 5785 5782
5791 5794 5797 5800 5802 5805 5807 5809 5811 5812 5813 5814 5815 5816 5817 5817 5818 5817 5817 5817 5816 5815 5814 5813 5812 5811 5809 5808 5806 5804 5802 5800 5798 5796 5794 5792 5789 5787 5784 5782 5779 5776 5774
5783 5787 5790 5793 5795 5798 5800 5802 5804 5805 5807 5808 5809 5810 5811 5811 5811 5811 5811 5810 5810 5809 5808 5807 5805 5804 5802 5801 5799 5797 5795 5793 5791 5789 5786 5784 5781 5779 5776 5773 5771 5768 5765
5776 5779 5783 5786 5788 5791 5793 5795 5797 5799 5800 5801 5802 5803 5804 5804 5805 5805 5804 5804 5803 5802 5801 5800 5798 5797 5795 5794 5792 5790 5788 5785 5783 5781 5778 5776 5773 5770 5768 5765 5762 5759 5755
5768 5771 5775 5778 5781 5784 5786 5788 5790 5792 5793 5794 5795 5796 5797 5798 5798 5798 5797 5797 5796 5795 5794 5793 5791 5789 5788 5786 5784 5782 5780 5777 5775 5773 5770 5767 5765 5762 5758 5755 5752 5749 5746
5760 5764 5767 5770 5774 5776 5779 5781 5783 5785 5786 5787 5788 5789 5790 5790 5791 5790 5790 5789 5789 5788 5786 5785 5784 5782 5780 5778 5776 5774 5772 5769 5766 5764 5761 5758 5756 5752 5749 5746 5742 5739 5735
5751 5755 5759 5763 5766 5769 5771 5773 5775 5777 5779 5780 5781 5782 5782 5783 5783 5783 5782 5782 5781 5780 5778 5777 5776 5774 5772 5769 5767 5765 5763 5762 5758 5756 5753 5749 5746 5743 5740 5736 5732 5728 5724
5743 5747 5751 5754 5757 5760 5762 5765 5767 5769 5771 5773 5774 5774 5775 5775 5775 5775 5774 5774 5773 5771 5770 5769 5767 5765 5763 5761 5758 5755 5753 5752 5750 5747 5744 5740 5737 5733 5730 5726 5721 5717 5713
5734 5738 5742 5745 5748 5751 5754 5757 5759 5761 5763 5765 5766 5766 5767 5767 5767 5767 5766 5765 5764 5763 5762 5760 5758 5756 5754 5752 5749 5746 5744 5741 5738 5737 5735 5731 5726 5723 5718 5714 5710 5705 5701
5725 5729 5732 5736 5739 5743 5746 5748 5751 5753 5755 5756 5757 5758 5759 5759 5759 5759 5758 5757 5756 5754 5753 5751 5749 5747 5745 5742 5740 5737 5734 5731 5728 5726 5724 5721 5717 5712 5707 5703 5698 5693 5689
5715 5719 5723 5727 5731 5734 5737 5740 5742 5744 5746 5748 5749 5750 5750 5751 5750 5750 5749 5748 5747 5745 5744 5742 5740 5738 5735 5733 5730 5728 5725 5722 5719 5715 5713 5710 5707 5702 5696 5691 5686 5681 5676
Wind_Speed
15 14 14 13 13 12 11 11 10 10 10 10 9 9 9 9 8 8 8 8 8 8 8 9 9 9 9 10 10 10 10 11 12 12 13 14 14 14 15 15 15 16 16
16 16 16 15 14 14 13 13 12 12 11 11 11 11 11 11 11 11 10 10 10 10 10 10 10 11 11 11 12 12 12 13 14 14 15 16 16 16 17 17 17 17 17
17 17 17 16 16 16 15 15 14 14 13 13 13 13 13 13 13 13 12 12 12 12 12 12 12 12 12 13 13 14 14 15 15 16 16 17 18 18 18 19 19 19 19
19 18 18 18 17 17 17 17 16 16 15 15 15 15 15 15 15 14 14 13 13 13 13 13 13 13 14 14 15 15 16 16 16 17 18 18 19 19 20 20 21 21 21
21 20 19 19 19 18 18 18 18 17 17 17 16 16 16 16 16 16 15 15 15 15 15 15 15 15 16 16 16 17 17 18 18 18 19 19 20 20 21 22 22 23 23
22 21 21 21 20 20 20 19 19 19 18 18 18 18 18 18 17 17 18 17 17 17 17 17 17 17 18 18 18 19 19 20 20 20 21 21 22 22 22 23 24 24 24
24 23 23 22 22 21 21 21 20 20 20 19 19 19 19 19 19 19 19 19 19 19 19 19 19 19 20 20 20 20 21 21 22 22 22 22 23 23 24 24 24 24 24
25 25 24 24 23 23 22 22 22 22 21 20 20 20 20 20 20 20 20 20 20 20 20 20 20 21 21 22 22 22 22 22 23 23 23 24 24 24 25 25 25 25 26
27 26 25 25 24 24 23 23 23 23 22 22 21 21 20 20 20 21 21 21 21 21 21 22 22 22 22 23 23 23 24 24 24 24 24 25 25 26 26 26 26 27 27
28 28 27 26 25 25 25 25 24 24 23 23 22 21 21 21 21 21 21 22 22 22 22 23 23 23 24 24 24 24 25 25 25 26 26 26 27 27 27 28 28 28 29
30 29 28 28 27 26 26 26 25 25 24 24 23 22 22 22 22 22 22 23 23 23 23 24 24 24 25 25 25 25 25 26 26 27 27 28 28 28 29 29 30 30 31
31 30 30 29 29 28 27 27 26 25 25 24 24 23 23 23 23 23 23 23 23 24 24 24 25 25 25 25 26 26 26 27 27 28 28 28 29 29 30 30 31 31 32
33 32 31 31 30 29 29 28 27 27 26 26 25 25 25 25 25 25 24 24 24 25 25 25 26 26 26 26 26 27 27 28 28 29 29 30 30 31 32 32 32 32 32
34 34 33 32 31 31 30 29 28 28 27 27 26 26 26 26 25 25 25 25 25 26 26 26 27 27 27 27 28 28 28 29 29 30 31 32 32 33 33 33 33 33 33
36 35 34 33 33 32 31 30 30 29 29 28 28 27 27 27 26 26 27 26 27 27 27 27 28 28 28 29 29 29 30 30 31 31 32 33 33 33 34 34 34 34 35
37 36 35 34 34 33 32 31 31 30 30 29 29 29 28 28 28 28 28 28 28 28 28 29 29 29 30 30 31 31 31 32 32 33 34 34 35 35 35 35 36 36 37
38 37 36 35 34 34 33 33 32 32 31 31 30 30 29 29 29 29 29 30 30 30 30 30 30 31 31 32 32 32 33 34 34 35 35 36 36 36 36 37 38 38 39
39 38 37 36 35 35 34 34 33 33 33 32 32 31 31 31 30 30 30 31 31 32 31 32 32 32 32 33 33 34 34 35 35 36 36 37 37 37 38 38 39 40 41
41 39 38 37 37 36 35 35 34 34 33 33 33 32 32 32 31 32 31 32 32 32 32 33 33 33 34 34 34 35 35 35 36 36 37 37 38 38 39 40 41 42 43
42 41 39 38 37 37 36 35 35 34 34 34 33 33 33 32 32 32 32 32 33 33 33 34 34 35 35 35 35 36 36 36 37 37 38 38 39 40 40 41 42 43 44
43 41 40 39 38 37 36 36 35 35 34 34 34 33 33 33 34 33 33 34 35 35 35 35 36 36 36 36 37 37 37 38 38 38 39 39 40 41 41 43 44 45 46
43 42 41 40 39 38 37 37 36 36 35 35 35 35 35 35 35 35 35 36 36 36 37 37 37 38 38 38 38 38 38 38 39 39 40 41 41 42 43 44 46 47 48
43 42 42 41 40 39 38 38 37 37 36 36 35 36 36 36 36 36 37 37 37 37 38 38 38 38 38 38 38 39 40 40 40 40 42 42 43 44 45 46 47 49 49
44 43 43 42 41 41 40 39 38 38 37 37 36 36 36 36 37 38 37 37 37 38 38 38 39 39 39 39 39 40 41 42 42 42 42 44 45 45 47 48 49 50 51
45 44 43 43 42 41 40 40 39 39 38 38 38 37 37 37 38 38 38 38 38 38 39 39 39 40 40 41 41 41 42 43 44 43 43 44 45 46 48 49 50 51 52
46 44 44 43 43 42 41 41 40 40 39 39 38 38 38 38 38 38 38 39 39 39 39 40 40 40 41 41 41 42 43 44 44 44 45 45 45 46 48 49 51 51 52
Wind_Direction
234 235 236 236 236 237 238 238 238 241 244 248 251 255 257 258 260 262 263 266 270 272 275 279 282 283 283 284 285 288 290 292 291 291 292 293 294 294 293 293 293 293 294
236 237 239 239 239 240 241 242 242 244 246 249 252 254 258 261 265 265 265 266 269 271 273 275 280 282 282 282 284 285 287 288 288 289 289 289 290 291 291 292 292 291 292
238 239 241 242 242 243 244 245 246 247 249 252 254 255 259 262 266 267 266 267 268 269 272 274 278 279 280 282 284 286 287 288 288 288 289 289 290 289 290 291 291 291 291
239 240 242 243 244 245 246 247 248 249 251 254 255 258 260 262 264 265 265 268 269 270 271 273 276 278 280 281 283 285 286 288 289 288 288 289 289 290 290 290 290 290 290
239 240 242 243 245 246 247 248 249 251 253 254 256 259 261 263 264 265 266 267 269 270 272 273 275 277 279 282 283 283 285 287 289 290 290 289 289 289 289 289 289 290 290
240 241 243 244 246 247 248 249 250 251 253 255 257 260 262 263 264 265 266 268 269 271 272 273 275 277 279 281 282 283 285 286 288 289 290 290 290 290 289 289 290 290 290
241 242 243 245 246 248 249 250 251 252 254 256 258 260 263 264 265 265 266 267 269 271 272 274 276 277 278 280 281 283 285 286 287 288 288 289 289 289 289 290 290 290 290
240 241 243 245 246 248 249 250 251 252 254 256 258 260 263 265 266 267 268 269 270 271 272 274 276 277 279 280 280 282 283 285 286 287 288 288 289 289 289 289 288 289 289
239 240 242 244 245 247 248 249 251 252 254 255 257 259 262 264 266 268 269 270 271 272 273 274 276 277 279 279 280 281 283 284 285 286 287 288 288 289 289 288 288 288 289
239 240 242 243 245 246 248 249 251 253 254 255 256 258 260 263 266 268 269 271 272 273 274 275 276 277 278 279 280 281 282 283 284 285 286 287 288 288 288 288 288 288 288
239 241 242 243 245 246 248 249 251 253 253 254 255 257 259 262 265 267 270 271 272 274 275 276 277 278 279 280 281 281 282 284 285 286 287 288 288 288 287 288 288 288 288
238 240 242 243 245 246 248 249 250 252 253 253 255 257 260 262 264 267 270 272 273 274 276 277 279 280 281 281 282 282 283 285 286 287 287 288 289 288 288 289 289 289 288
238 240 241 243 245 246 247 249 250 251 252 253 255 258 260 262 265 267 268 271 273 275 276 278 279 280 281 282 282 283 284 285 285 286 287 288 288 288 288 289 289 289 289
238 239 241 243 245 246 247 248 249 250 252 254 255 258 261 263 265 267 268 270 272 275 277 278 279 279 281 282 283 283 284 284 285 286 288 288 288 288 289 289 289 288 289
238 240 241 242 244 245 246 247 249 250 252 254 256 258 260 262 264 266 269 271 272 274 276 278 279 280 281 282 282 283 283 284 285 287 288 289 289 289 289 288 288 288 289
239 240 241 242 243 244 245 247 249 250 252 254 256 258 260 262 265 267 269 272 273 275 276 277 278 280 281 282 282 283 284 284 285 287 289 289 289 289 288 287 287 288 288
238 239 240 242 243 244 245 246 248 251 253 255 257 258 260 263 265 267 269 272 273 275 276 276 278 280 281 282 283 283 284 285 285 287 288 289 289 288 288 288 288 288 288
238 238 240 241 242 243 245 246 248 251 253 255 256 258 260 263 265 268 270 272 274 275 276 277 278 280 281 282 283 283 284 284 285 287 288 289 289 289 289 289 289 289 289
237 238 240 240 241 243 245 247 249 251 253 255 256 258 260 263 265 268 270 273 274 275 276 278 280 281 282 282 283 283 284 285 286 287 288 289 289 289 290 290 290 291 290
237 238 239 240 241 243 244 246 249 251 252 254 256 258 260 263 266 268 271 273 275 276 277 279 281 282 282 283 283 283 284 285 286 287 288 289 290 290 291 291 292 292 292
238 239 239 240 241 243 245 246 248 250 252 254 256 259 261 264 266 268 271 274 275 276 277 279 281 282 283 283 283 284 284 285 286 287 288 289 290 291 291 292 292 293 292
238 239 240 241 241 243 244 246 248 250 252 255 257 260 263 265 267 269 272 274 275 276 277 278 280 281 282 283 284 284 284 284 285 286 288 288 289 290 291 292 293 293 294
237 238 240 241 242 243 244 245 247 249 252 255 258 260 263 265 267 269 272 273 274 276 277 279 280 281 282 283 284 285 284 283 284 286 287 288 289 290 291 292 293 294 294
237 239 240 241 243 244 245 246 248 250 252 255 257 260 263 266 267 270 272 273 275 276 278 279 280 281 282 283 285 286 286 285 286 287 287 288 290 291 292 293 295 295 295
237 238 240 241 242 243 245 247 248 250 252 255 258 260 263 266 268 270 272 274 275 277 278 279 280 281 282 283 284 286 287 286 287 289 289 289 291 293 294 295 295 296 296
237 238 239 240 241 243 245 247 249 251 253 255 258 261 264 266 268 271 272 274 275 277 278 279 280 281 283 284 285 286 287 287 287 289 290 291 292 294 296 296 297 297 298